Dewpoint
70 70 70 70 70 70 71 72 72 72 71 71 71 71 71 71 70 71 71 70 70 67 67 68 69 70 70 70 69 69 69 69 70 70 70 70 70 70 70 69 69 69 69 69 68 68 68 68 67 66 67 68 68 64 62 61 61 62 61 62 64 59
69 69 69 70 70 71 70 71 69 70 71 70 71 72 71 70 71 68 70 68 68 69 66 67 69 71 69 70 70 70 70 70 70 70 70 70 70 70 70 70 70 69 70 70 68 64 65 68 67 67 68 68 62 62 61 61 61 61 62 61 63 61
68 69 69 68 69 69 69 69 69 70 71 71 71 72 69 70 67 67 68 68 68 67 67 67 68 69 70 70 70 70 70 70 70 70 70 70 70 70 70 70 70 70 70 69 65 64 63 63 65 67 67 63 61 61 61 61 60 61 61 60 62 62
68 67 68 69 68 68 68 68 68 68 68 69 69 69 68 67 66 66 66 67 67 68 67 65 70 71 71 67 66 69 70 70 70 70 70 70 70 71 70 69 69 69 68 67 67 65 64 63 63 63 62 61 60 60 61 61 60 60 60 60 61 62
67 67 66 67 67 67 65 66 67 67 66 66 66 66 66 65 66 66 66 66 66 68 65 65 65 66 67 66 65 65 66 67 67 67 70 67 67 67 68 67 68 68 67 67 67 66 66 64 65 65 63 62 60 60 60 62 60 60 60 59 62 63
66 66 66 66 66 68 66 65 66 67 66 66 66 66 66 66 66 66 66 67 67 64 64 64 64 65 66 66 66 65 65 65 65 67 69 68 67 66 67 68 68 67 67 67 67 67 67 67 64 65 64 63 61 60 60 60 60 60 60 59 61 62
66 66 66 65 64 64 64 65 66 67 65 65 66 66 66 66 66 66 66 67 66 64 63 64 64 64 64 65 65 65 65 65 65 66 68 68 68 67 67 68 68 67 67 67 67 67 67 66 65 64 65 63 61 59 60 60 59 60 59 60 61 62
65 65 65 65 64 64 64 64 66 66 64 68 67 66 66 67 68 67 68 67 68 65 64 63 63 64 64 64 65 64 65 65 65 66 67 68 67 67 67 67 68 68 67 67 66 66 67 66 66 65 65 65 62 60 60 59 59 59 59 60 60 62
65 64 64 64 64 64 64 63 64 64 63 69 65 65 66 67 67 67 68 68 68 67 65 64 63 64 64 64 63 63 64 64 65 66 66 66 67 67 66 66 67 67 67 67 66 66 67 66 67 66 66 65 65 62 60 59 59 58 58 59 60 61
65 66 64 64 64 63 63 63 63 64 64 67 63 66 67 66 66 66 66 67 68 68 67 66 64 63 63 64 63 63 64 64 64 65 66 66 67 67 66 66 66 66 66 66 66 66 67 66 66 66 66 66 66 65 62 60 58 58 58 59 60 61
63 66 64 63 64 63 63 62 64 64 64 64 64 66 66 66 66 65 66 66 67 68 67 65 64 64 65 65 65 64 64 64 64 64 65 65 66 67 66 66 66 66 65 65 65 66 66 66 66 66 66 66 66 65 63 61 59 58 57 59 60 62
62 63 62 62 62 61 61 62 63 63 64 65 66 66 66 67 67 67 67 67 66 67 68 67 67 67 66 66 66 65 65 65 65 65 65 65 65 66 66 66 66 66 66 66 66 65 65 65 65 65 65 65 65 65 63 61 59 58 58 59 60 61
59 60 59 59 59 59 59 60 60 61 62 63 63 64 64 65 66 66 66 66 67 67 68 67 67 67 68 67 66 66 66 66 65 65 65 65 65 65 65 66 66 66 66 65 65 65 65 65 65 65 65 64 65 64 64 61 60 59 58 58 59 60
58 58 59 58 58 58 58 59 60 58 60 59 60 60 62 61 62 63 64 65 65 66 67 67 67 67 67 67 66 66 66 66 66 65 65 66 65 65 65 65 65 65 66 66 65 65 65 64 64 64 64 64 64 64 64 62 60 60 59 58 59 60
58 56 57 56 57 58 58 58 59 58 57 58 59 58 58 58 58 59 61 62 63 65 67 67 67 67 66 66 66 66 66 66 66 66 65 65 65 65 64 64 64 64 64 64 64 64 65 65 64 64 64 65 63 63 64 62 61 60 59 59 60 59
54 55 56 58 56 57 57 57 58 60 57 57 57 57 57 57 58 58 59 59 60 62 64 65 66 67 67 66 66 66 66 66 66 66 65 65 66 65 65 64 64 64 63 62 63 63 63 63 63 63 64 64 64 64 63 63 62 60 59 59 58 59
54 54 55 55 55 56 56 56 56 58 57 56 57 57 57 57 57 57 58 59 59 61 61 61 63 66 67 67 66 66 66 66 66 66 65 65 65 65 65 65 64 65 63 63 62 62 62 62 62 62 63 63 63 64 64 64 63 62 60 59 59 59
54 54 54 55 54 54 55 55 55 55 59 56 56 57 57 57 57 58 58 59 59 59 61 60 61 65 66 66 66 66 66 65 65 65 65 65 65 65 64 64 64 64 64 63 62 62 61 61 61 61 62 62 62 63 64 64 64 65 62 60 60 59
55 53 53 53 55 54 54 54 54 55 55 56 56 57 57 57 57 58 58 59 59 59 60 60 61 63 64 65 65 64 64 64 65 65 65 65 65 65 64 64 64 64 64 63 63 63 62 62 62 61 61 62 62 62 63 64 65 65 63 61 60 59
54 53 53 52 53 53 53 54 53 54 54 55 55 59 57 57 57 58 59 58 59 59 59 60 60 61 63 65 64 64 64 64 65 65 64 64 64 63 63 63 63 63 63 63 64 63 63 62 62 61 62 62 62 62 62 63 63 63 64 63 62 62
53 53 54 52 53 54 53 53 52 53 53 54 56 57 56 56 57 58 58 58 59 59 59 59 61 60 61 63 65 65 64 64 64 65 64 64 64 64 63 63 64 64 63 63 62 62 62 61 60 61 60 60 60 60 62 62 62 63 63 63 63 62
52 52 54 54 53 54 54 53 52 52 53 54 54 55 56 56 58 58 58 58 59 59 59 59 60 60 61 62 63 64 64 64 63 63 64 64 64 65 65 64 64 63 62 62 61 61 62 62 60 59 58 58 59 59 59 60 62 62 63 63 63 63
51 52 53 57 54 54 54 54 53 54 54 55 54 55 56 57 57 57 58 58 59 58 58 59 60 61 60 61 62 63 63 63 63 64 64 64 64 64 64 64 64 63 63 63 63 63 62 62 60 58 59 58 57 56 58 58 59 60 62 63 63 62
51 51 52 56 58 54 56 54 54 54 55 55 54 57 56 56 56 57 58 58 58 58 58 59 59 60 60 60 61 63 63 62 63 63 63 64 63 64 64 64 64 63 63 62 62 62 63 62 62 61 58 57 56 54 54 55 55 58 59 61 62 62
51 52 51 55 54 55 55 53 53 54 55 54 54 54 55 55 56 57 58 57 58 58 58 59 59 60 61 61 61 60 61 61 61 62 63 64 63 64 64 64 63 64 63 62 61 62 62 62 62 63 61 57 56 54 54 54 55 57 58 60 61 62
50 51 51 51 53 54 53 52 52 52 53 52 53 53 54 54 55 55 56 57 57 58 58 59 59 60 60 62 61 61 60 60 61 62 63 63 63 63 63 64 64 64 64 64 62 62 61 63 63 63 62 61 59 57 56 57 56 54 58 60 61 61
51 51 51 51 51 56 52 51 51 51 52 53 52 52 54 55 55 56 57 56 57 58 58 58 59 60 60 61 62 60 60 60 61 61 63 63 63 63 63 64 65 64 64 64 63 61 61 61 61 61 61 61 61 61 61 58 56 56 55 58 59 60
50 52 49 51 49 52 52 50 51 52 54 53 53 53 55 55 56 58 56 56 57 57 58 59 59 59 60 61 62 61 60 60 60 61 63 61 62 62 63 63 63 64 63 63 62 61 60 60 60 60 61 61 61 61 61 60 59 57 56 55 56 59
48 48 49 49 51 50 55 52 52 51 52 53 55 56 56 56 56 56 55 56 57 57 58 58 59 59 60 60 62 61 60 60 60 61 61 61 61 61 61 61 61 62 62 62 62 62 61 60 61 61 61 61 61 60 60 60 60 60 57 56 56 57
46 47 49 48 48 49 51 55 51 51 51 52 53 54 54 54 54 55 55 56 56 57 57 58 58 59 60 61 61 61 60 60 60 61 62 60 60 61 61 61 61 61 62 61 63 63 62 62 62 62 62 61 60 60 59 59 59 59 59 59 56 57
46 46 48 48 48 49 50 52 52 52 52 52 53 53 53 53 54 54 55 55 56 56 57 57 58 59 59 60 60 60 60 60 61 61 61 61 60 61 61 61 61 61 61 61 61 62 61 62 62 62 62 61 60 60 59 58 58 58 58 57 56 57
44 46 47 48 48 48 50 51 51 52 52 52 53 53 53 53 53 54 54 55 56 57 57 57 57 58 57 57 57 57 57 57 58 58 58 60 60 61 61 62 62 62 61 62 62 62 61 61 61 61 61 61 61 61 61 60 60 60 58 58 57 57
43 45 46 47 47 48 49 50 51 52 52 54 53 53 53 53 54 54 55 55 56 56 56 54 54 54 54 53 54 54 53 54 55 55 56 57 58 59 61 62 61 61 62 61 62 61 61 61 61 61 61 62 62 61 61 62 62 60 59 60 59 57
43 46 47 47 48 49 49 50 51 51 51 52 53 54 53 54 54 54 55 56 56 55 54 53 52 51 51 49 50 50 50 50 49 50 52 53 55 57 59 60 60 61 61 62 62 62 62 61 62 61 62 61 61 61 61 61 62 61 59 58 57 57
44 44 46 48 48 49 50 51 51 50 51 53 54 53 54 56 55 55 55 54 54 54 53 53 51 48 48 47 46 47 48 47 46 47 48 51 52 55 56 58 60 60 61 61 60 60 59 58 57 57 58 58 57 56 57 58 59 59 61 60 60 59
44 44 46 51 48 49 49 50 50 50 51 53 55 54 54 55 55 55 54 53 52 52 51 51 50 46 45 45 46 44 45 45 45 46 47 48 50 53 55 57 59 59 59 58 56 55 56 55 54 53 54 55 54 54 54 55 56 57 58 59 60 60
45 45 45 50 48 49 49 49 49 50 50 51 52 52 53 54 54 53 53 51 50 49 49 48 46 45 43 43 44 45 44 44 44 45 46 47 49 51 54 57 58 58 56 55 54 53 53 52 52 52 51 51 51 51 52 52 53 54 55 56 57 58